Temp
13 13 13 13 13 13 13 13 13 13 13 12 12 12 12 12 12 12 12 12 12 12 12 12 12 13 13 12 14 13 13 14 15 14 14 13 13 12 12 11 11 11 11 10 12
13 13 13 13 13 13 13 13 13 13 13 13 12 12 13 12 12 12 12 12 12 12 12 12 12 13 12 13 14 13 14 14 15 14 14 14 13 12 12 12 11 11 10 12 12
12 13 13 13 13 13 13 13 13 14 13 13 13 12 12 12 12 12 12 12 12 12 12 13 13 14 14 14 15 13 15 14 14 14 14 14 13 13 13 13 12 11 12 12 12
12 13 13 13 13 13 13 13 13 14 14 13 12 13 12 13 13 12 12 13 12 12 12 13 14 13 14 14 15 15 15 15 14 14 14 13 13 13 13 13 12 11 11 12 12
12 12 13 13 13 13 13 13 13 14 14 13 13 12 12 12 12 13 13 13 12 12 11 11 13 12 14 15 15 15 15 15 14 14 14 13 13 13 12 12 12 11 12 10 9
12 12 13 13 13 13 13 13 13 14 14 13 13 12 12 12 12 13 12 13 13 12 11 13 13 13 15 15 13 16 15 15 14 14 13 13 13 13 12 12 12 12 10 10 10
12 13 13 13 13 13 13 13 14 14 13 12 12 12 13 12 12 12 13 12 13 13 13 13 12 13 14 15 15 16 15 15 14 14 14 14 13 14 12 12 11 11 10 10 10
13 13 13 13 13 13 13 13 13 14 13 12 12 12 12 12 12 12 13 13 12 13 13 12 13 13 14 14 15 16 16 16 15 14 14 13 13 13 12 12 11 11 10 10 10
13 13 13 13 13 13 13 13 13 14 12 12 12 12 12 12 12 13 13 13 13 13 13 13 13 14 14 15 16 16 14 15 15 15 15 14 14 14 12 13 12 11 11 10 10
13 13 13 13 13 13 13 13 13 13 12 12 12 13 13 12 13 13 12 13 13 12 12 13 13 15 15 16 16 16 15 18 16 16 15 16 16 14 13 13 13 12 12 11 11
13 13 13 13 13 13 13 13 13 13 12 13 14 13 13 12 13 13 13 13 12 12 13 13 14 14 16 15 14 15 16 17 17 16 16 16 15 15 14 14 14 13 12 11 11
13 13 13 13 13 13 13 12 12 13 13 13 13 13 12 14 13 12 12 12 12 14 14 14 14 15 15 15 15 16 17 16 16 16 15 16 16 16 15 15 15 14 13 12 12
13 13 13 13 13 13 13 12 13 13 14 13 13 13 13 12 13 13 12 13 14 12 14 15 16 16 16 15 17 18 17 16 16 16 15 15 16 17 17 16 15 15 14 13 12
13 13 13 13 13 13 12 13 14 14 15 15 13 14 13 13 14 13 13 14 15 14 13 15 15 15 17 17 17 16 16 17 17 17 17 15 16 17 17 16 15 14 14 13 13
13 13 13 13 14 12 13 13 14 14 19 15 15 14 14 14 15 14 13 14 14 15 15 15 16 17 17 17 17 15 17 17 17 18 19 18 19 14 17 17 16 15 15 14 13
13 13 13 13 13 13 13 14 14 14 19 16 15 14 15 14 15 15 14 13 14 15 15 16 16 16 16 16 16 16 17 17 18 19 21 16 17 17 13 17 16 16 15 14 14
13 13 13 13 12 13 14 14 15 17 16 17 16 15 15 15 16 15 15 14 15 16 16 16 16 17 16 17 17 16 18 20 19 15 18 14 17 18 17 17 16 16 15 14 14
13 13 13 13 14 14 14 13 16 17 17 16 16 16 16 17 16 16 16 15 15 16 17 16 16 16 17 17 17 17 16 19 17 21 21 14 11 19 17 16 17 17 17 16 16
13 13 13 13 13 14 12 15 17 16 16 16 16 17 17 17 17 17 16 17 17 17 17 18 18 18 17 17 17 17 18 18 19 20 21 21 20 20 18 16 16 17 17 16 15
13 11 13 13 13 13 12 15 16 15 14 15 17 17 17 17 17 16 17 17 17 17 16 17 17 17 18 17 17 17 17 18 19 19 19 20 20 17 18 18 15 17 16 16 16
12 11 12 12 13 11 14 16 14 14 14 15 16 17 17 18 17 17 17 17 16 16 16 16 17 17 17 18 17 18 17 17 18 19 20 21 21 18 18 17 15 16 16 17 16
10 13 12 12 11 13 14 14 13 14 13 14 14 16 16 17 17 17 17 17 16 15 15 16 16 17 18 18 18 18 18 18 18 19 19 19 20 16 15 17 16 16 16 16 16
11 11 12 12 14 14 13 13 13 13 14 14 15 15 15 15 16 16 16 15 14 15 15 16 16 17 18 18 18 18 17 17 18 18 18 19 19 15 16 16 16 16 16 16 15
10 12 11 11 11 12 13 13 13 12 13 13 14 14 14 15 15 15 15 15 13 14 14 14 15 16 17 17 17 16 16 16 17 17 18 19 19 15 12 15 15 15 15 15 15
10 10 11 13 12 11 12 12 13 14 13 13 13 14 14 14 15 14 15 15 14 13 13 13 14 15 15 15 15 15 16 15 16 16 16 17 17 14 13 12 14 14 14 14 14
10 10 10 10 10 11 12 12 12 13 12 13 13 14 14 14 14 14 14 14 14 13 13 13 14 13 13 14 14 13 14 14 15 15 15 15 16 13 11 14 14 14 14 13 12
11 10 10 10 11 11 12 11 11 11 12 12 12 13 13 12 12 12 12 12 13 12 12 12 13 13 14 14 14 15 14 14 14 14 14 14 11 10 13 13 13 13 12 11 10
Height
3164 3164 3164 3165 3165 3164 3165 3165 3166 3167 3168 3170 3171 3172 3174 3175 3176 3177 3178 3179 3180 3179 3180 3180 3180 3181 3182 3184 3184 3185 3187 3189 3190 3190 3193 3194 3194 3193 3193 3193 3195 3198 3197 3197 3197
3163 3163 3163 3164 3165 3164 3165 3165 3166 3168 3169 3170 3172 3173 3175 3177 3178 3179 3180 3180 3180 3180 3181 3182 3182 3184 3187 3187 3185 3165 3186 3190 3191 3190 3193 3195 3195 3195 3196 3197 3197 3198 3199 3197 3199
3163 3162 3163 3163 3164 3164 3164 3165 3167 3168 3169 3171 3173 3174 3176 3178 3181 3182 3181 3181 3181 3181 3183 3184 3185 3186 3191 3189 3188 3185 3189 3191 3193 3193 3195 3196 3197 3198 3199 3200 3200 3200 3197 3198 3200
3163 3162 3162 3163 3163 3164 3164 3165 3167 3168 3170 3171 3174 3175 3178 3180 3186 3181 3182 3181 3181 3182 3185 3186 3188 3188 3192 3190 3191 3191 3192 3192 3194 3195 3196 3197 3197 3200 3200 3201 3201 3200 3199 3200 3201
3162 3162 3162 3162 3163 3164 3164 3165 3167 3169 3170 3172 3174 3176 3179 3181 3183 3181 3183 3182 3182 3183 3188 3189 3188 3186 3188 3192 3192 3191 3193 3194 3195 3197 3197 3197 3199 3200 3199 3199 3200 3200 3199 3201 3204
3162 3162 3162 3162 3163 3163 3164 3165 3167 3169 3171 3173 3175 3177 3179 3184 3181 3182 3183 3184 3184 3186 3188 3189 3188 3189 3193 3193 3182 3192 3194 3196 3197 3198 3198 3199 3199 3200 3200 3199 3198 3199 3200 3203 3206
3161 3162 3162 3162 3163 3163 3164 3165 3167 3169 3171 3174 3176 3178 3180 3182 3182 3182 3183 3185 3186 3187 3189 3190 3191 3193 3194 3195 3194 3195 3196 3198 3199 3199 3199 3200 3200 3201 3199 3200 3199 3199 3202 3204 3206
3161 3161 3162 3162 3163 3163 3164 3166 3168 3170 3172 3175 3177 3179 3183 3180 3181 3182 3184 3186 3187 3188 3190 3192 3192 3195 3193 3194 3195 3195 3195 3196 3197 3199 3198 3198 3195 3198 3199 3201 3201 3201 3202 3204 3205
3160 3161 3162 3162 3163 3163 3165 3167 3169 3171 3174 3176 3179 3181 3182 3180 3181 3183 3186 3188 3189 3190 3191 3191 3193 3196 3196 3194 3194 3192 3191 3193 3197 3198 3198 3198 3195 3198 3199 3201 3202 3202 3203 3203 3205
3160 3161 3161 3162 3163 3164 3166 3168 3170 3173 3176 3179 3181 3182 3180 3181 3181 3184 3186 3189 3191 3194 3194 3194 3195 3194 3194 3193 3191 3190 3191 3191 3194 3196 3198 3198 3198 3198 3198 3200 3201 3202 3202 3203 3205
3159 3160 3161 3162 3164 3165 3167 3169 3176 3177 3177 3182 3183 3183 3181 3181 3182 3185 3187 3188 3191 3193 3194 3194 3195 3192 3191 3191 3193 3185 3191 3193 3194 3194 3196 3196 3194 3195 3196 3198 3199 3200 3200 3201 3203
3159 3160 3162 3163 3164 3166 3167 3169 3172 3175 3180 3179 3180 3183 3183 3182 3184 3186 3188 3192 3193 3194 3194 3196 3188 3191 3192 3193 3193 3193 3191 3193 3193 3194 3194 3193 3192 3192 3193 3194 3196 3197 3197 3198 3201
3159 3160 3162 3163 3165 3167 3168 3170 3172 3175 3181 3180 3181 3183 3183 3186 3189 3189 3189 3192 3193 3183 3194 3193 3193 3193 3193 3192 3191 3189 3189 3192 3192 3190 3188 3188 3184 3187 3188 3190 3192 3195 3196 3197 3199
3159 3160 3161 3163 3168 3168 3170 3171 3173 3176 3180 3181 3181 3185 3185 3187 3190 3190 3189 3195 3194 3193 3193 3193 3193 3193 3192 3191 3190 3185 3182 3188 3189 3187 3184 3183 3184 3180 3181 3185 3188 3191 3194 3196 3197
3159 3160 3161 3163 3165 3169 3171 3172 3175 3178 3172 3178 3181 3181 3184 3187 3188 3189 3189 3192 3192 3193 3195 3192 3193 3192 3192 3192 3190 3187 3186 3187 3186 3182 3177 3179 3175 3176 3173 3176 3182 3187 3190 3192 3195
3159 3160 3162 3164 3166 3168 3171 3174 3177 3182 3171 3177 3178 3179 3183 3185 3187 3188 3189 3191 3192 3193 3191 3191 3190 3192 3192 3192 3191 3189 3188 3186 3183 3178 3172 3175 3175 3172 3168 3179 3176 3183 3187 3189 3191
3158 3160 3162 3164 3167 3169 3172 3175 3181 3174 3175 3176 3177 3179 3181 3183 3186 3187 3188 3189 3190 3191 3188 3188 3189 3189 3190 3190 3189 3190 3185 3177 3177 3181 3173 3176 3178 3169 3172 3175 3176 3180 3183 3186 3188
3159 3160 3162 3164 3166 3169 3173 3179 3178 3173 3174 3175 3176 3178 3180 3181 3183 3184 3186 3186 3187 3186 3184 3185 3186 3184 3186 3188 3188 3188 3186 3181 3184 3166 3164 3170 3184 3169 3173 3173 3173 3175 3178 3180 3181
3159 3161 3162 3164 3166 3169 3174 3177 3173 3174 3174 3175 3176 3176 3177 3179 3181 3181 3182 3181 3181 3181 3180 3178 3178 3178 3181 3185 3187 3185 3183 3181 3176 3170 3164 3160 3164 3160 3165 3170 3169 3173 3175 3176 3178
3160 3163 3164 3165 3166 3169 3175 3173 3173 3173 3173 3174 3174 3174 3174 3176 3179 3179 3178 3179 3179 3179 3179 3179 3178 3178 3179 3181 3183 3183 3182 3179 3173 3171 3168 3163 3160 3165 3166 3162 3166 3170 3174 3175 3175
3162 3170 3165 3165 3167 3171 3173 3173 3172 3172 3172 3174 3173 3172 3173 3172 3173 3175 3175 3176 3177 3179 3180 3180 3179 3178 3178 3176 3178 3178 3178 3178 3176 3173 3166 3163 3161 3164 3168 3166 3167 3169 3172 3174 3174
3164 3172 3166 3165 3171 3172 3172 3171 3170 3172 3172 3172 3172 3172 3172 3172 3172 3173 3172 3173 3173 3177 3178 3178 3176 3172 3172 3172 3172 3172 3172 3172 3169 3168 3166 3166 3163 3161 3162 3164 3165 3168 3171 3171 3171
3167 3168 3166 3166 3171 3171 3170 3170 3169 3171 3171 3172 3172 3172 3172 3172 3173 3171 3171 3170 3173 3176 3176 3176 3174 3170 3167 3168 3166 3167 3170 3170 3169 3167 3164 3162 3160 3158 3159 3161 3163 3166 3168 3168 3168
3166 3170 3169 3168 3168 3169 3169 3170 3169 3167 3169 3170 3170 3170 3171 3171 3171 3171 3171 3171 3172 3174 3172 3174 3174 3172 3168 3164 3166 3168 3169 3168 3166 3165 3161 3157 3157 3157 3160 3160 3161 3161 3163 3164 3164
3165 3168 3167 3170 3169 3169 3168 3168 3168 3168 3167 3168 3169 3169 3169 3169 3169 3169 3169 3169 3169 3169 3170 3172 3170 3169 3166 3166 3165 3164 3165 3166 3165 3164 3162 3159 3158 3156 3159 3158 3159 3159 3159 3159 3160
3163 3164 3165 3167 3165 3167 3168 3167 3167 3167 3168 3167 3167 3167 3167 3168 3167 3167 3166 3167 3167 3167 3167 3167 3165 3165 3163 3163 3162 3160 3160 3160 3159 3159 3159 3159 3158 3153 3155 3155 3157 3157 3157 3157 3158
3160 3161 3162 3165 3166 3167 3166 3166 3166 3165 3166 3166 3166 3165 3166 3165 3164 3164 3165 3166 3165 3165 3164 3164 3161 3161 3157 3157 3155 3152 3153 3152 3153 3154 3154 3157 3146 3143 3150 3153 3153 3154 3154 3155 3157
Wind_Speed
4 4 4 3 3 4 4 3 3 3 6 8 9 10 10 10 10 9 6 6 6 6 9 13 13 12 13 10 18 7 9 9 8 9 9 8 6 5 8 11 12 10 9 14 12
4 4 5 4 4 4 4 4 4 5 7 9 10 10 10 10 9 8 7 7 8 7 11 11 14 16 8 7 7 17 13 9 7 11 8 8 5 9 10 10 12 10 16 10 11
4 4 4 4 4 4 4 4 5 5 7 10 10 10 11 11 10 4 7 6 6 7 14 12 14 18 8 6 4 5 6 10 7 8 8 7 6 9 8 5 9 14 11 10 12
4 4 4 4 4 4 4 5 6 7 8 10 11 11 12 15 4 8 6 6 5 11 16 13 14 6 4 6 4 5 7 9 9 10 9 9 9 11 3 6 8 13 13 11 12
3 4 4 4 3 4 4 5 7 9 10 12 10 12 14 10 4 12 6 5 8 19 9 3 12 3 8 4 5 8 7 9 10 12 9 11 11 5 4 6 11 15 14 14 14
4 3 3 3 3 4 5 6 8 10 12 12 12 11 13 6 6 10 10 7 10 17 8 10 8 5 7 5 6 8 9 9 10 10 10 9 8 4 5 6 7 12 15 14 14
3 3 3 3 3 4 6 8 9 10 13 14 12 12 13 10 8 11 13 10 7 15 12 7 1 1 7 3 6 9 10 8 7 8 5 5 5 4 4 9 8 11 14 14 14
3 3 3 3 3 4 7 9 11 12 14 14 11 11 3 7 11 14 14 11 9 17 12 5 7 2 5 1 7 10 8 8 8 6 3 8 9 5 7 8 8 12 13 14 14
3 4 4 4 4 5 7 10 11 14 15 13 11 7 5 7 12 15 13 12 14 16 5 8 3 4 4 10 10 13 7 14 6 6 2 6 1 4 6 7 7 10 12 13 13
4 4 5 4 5 6 9 11 11 14 15 11 5 4 4 9 13 15 13 11 9 9 3 3 5 6 9 13 9 4 10 5 6 7 5 5 4 5 6 6 9 10 13 14 13
4 5 5 5 6 8 11 13 10 12 17 8 6 1 5 14 16 14 11 12 7 11 9 7 3 6 8 1 11 14 3 5 5 4 4 7 7 7 8 9 10 10 14 16 15
5 6 6 6 8 10 14 11 16 17 12 10 9 5 10 15 16 14 16 11 10 8 5 8 3 8 2 4 8 5 5 3 5 6 5 7 11 8 11 12 12 13 15 17 16
4 5 7 8 9 11 13 9 17 15 7 12 7 6 11 15 12 17 16 9 8 8 9 3 1 2 1 5 8 8 9 7 8 7 12 8 11 6 10 12 14 14 14 15 16
6 6 8 10 10 11 9 11 11 16 6 10 13 9 13 12 11 15 16 10 8 8 11 11 8 4 4 5 6 5 3 4 10 12 4 10 6 9 10 10 13 14 15 14 17
6 7 9 10 11 12 13 9 11 15 6 10 13 12 12 14 6 15 16 14 11 8 9 9 8 7 4 6 5 1 2 3 6 13 11 13 9 7 13 12 8 11 14 15 16
6 7 8 10 12 11 12 8 14 5 1 8 14 14 16 17 8 7 16 15 10 12 10 14 8 9 4 5 5 7 7 9 12 16 18 16 18 6 5 9 9 5 7 14 17
5 7 8 9 11 11 12 13 6 10 3 6 13 15 16 15 16 12 14 17 17 13 15 15 18 15 13 12 9 8 14 20 6 10 9 5 15 5 4 4 4 2 3 7 14
5 7 8 9 10 12 12 4 8 3 3 4 8 14 18 16 15 12 15 18 19 20 20 11 14 16 17 14 17 10 17 13 11 12 9 18 4 5 5 2 4 7 6 5 8
6 6 5 7 9 12 10 9 6 5 4 4 7 14 17 17 15 17 15 19 19 21 24 21 22 10 9 12 13 16 23 20 24 25 27 25 12 4 10 6 3 8 11 10 8
6 6 4 6 8 12 6 13 5 8 4 6 10 11 16 18 15 17 16 14 18 17 14 16 23 18 17 14 15 17 20 19 20 15 15 24 19 13 4 9 6 6 10 9 7
9 3 2 4 8 6 8 7 7 6 5 7 8 8 16 15 17 16 17 14 12 11 14 17 19 21 18 21 17 17 13 15 20 19 14 12 4 4 5 3 2 9 10 10 10
11 2 1 5 2 6 8 9 10 6 7 7 9 9 10 14 14 15 16 14 9 10 12 11 17 20 21 18 16 17 19 18 21 18 23 20 22 0 2 9 10 12 15 17 16
5 1 2 7 1 5 8 4 6 8 7 7 9 10 9 11 14 14 11 6 4 8 10 7 13 21 23 19 22 18 17 24 25 25 30 24 21 6 8 10 10 11 13 15 18
6 0 2 1 4 2 4 5 5 7 9 9 8 9 9 10 11 10 13 13 9 10 16 16 19 22 25 24 20 17 16 17 17 21 25 25 23 7 7 4 7 11 14 15 13
5 4 9 2 3 3 4 5 4 6 6 8 10 11 11 13 13 14 15 14 12 16 13 14 21 22 25 25 26 27 28 26 29 29 25 26 24 6 5 4 8 10 12 12 13
5 6 5 6 7 5 6 5 5 6 6 7 10 9 10 11 13 14 8 13 12 13 11 14 23 20 25 25 26 30 32 27 25 23 26 25 24 2 8 5 8 8 8 8 8
5 5 4 7 4 5 7 8 5 8 8 10 9 9 10 10 8 12 12 15 17 18 20 20 21 19 25 19 22 19 23 25 20 18 10 12 10 7 7 12 10 9 6 5 4
Wind_Direction
242 244 250 243 235 243 225 198 200 178 144 150 156 150 139 130 122 119 121 129 116 104 101 103 91 96 102 116 121 87 125 122 129 129 130 114 87 100 128 136 139 159 160 162 155
244 243 247 243 239 240 226 207 187 180 154 152 161 155 144 132 117 118 122 127 132 130 116 106 99 112 94 129 160 124 111 114 88 113 138 125 117 117 116 131 147 124 155 164 155
246 245 243 244 237 228 228 197 174 179 160 151 162 159 145 132 98 224 143 135 129 133 129 103 107 101 106 134 190 91 96 96 107 111 132 139 136 133 126 128 165 158 159 157 160
250 241 239 241 234 221 219 182 176 167 163 157 157 163 148 124 91 188 151 130 143 148 129 111 118 116 153 140 152 132 87 109 104 112 119 124 117 129 125 131 178 171 165 161 164
248 236 233 233 224 216 203 184 169 164 167 157 160 160 159 158 231 187 151 135 143 138 138 135 143 2 124 128 122 115 110 115 124 117 118 114 125 129 122 130 156 170 163 167 168
241 233 226 220 212 201 193 184 166 165 164 158 155 156 156 190 235 178 162 145 137 155 161 132 128 74 84 164 131 127 132 131 120 127 124 126 124 80 108 116 160 164 165 171 175
235 231 214 206 199 189 185 180 165 165 162 156 154 151 153 220 199 177 165 155 147 166 154 131 46 40 138 139 113 132 124 136 145 139 163 162 142 135 135 155 158 171 173 179 182
226 219 201 190 191 184 177 174 163 162 162 154 150 152 184 190 186 184 173 163 155 159 147 179 175 170 201 176 162 178 167 156 162 164 216 215 202 156 153 159 177 179 184 187 193
216 206 187 180 179 174 167 163 163 157 161 153 149 129 247 199 182 176 172 163 162 169 137 167 151 207 200 187 201 201 315 142 149 180 224 232 15 182 178 177 204 200 200 197 202
210 195 181 171 163 161 155 154 157 157 159 149 153 131 276 176 173 172 176 166 160 176 156 150 191 206 220 211 222 212 190 176 125 179 201 240 252 222 196 197 211 216 210 207 205
206 192 178 161 155 153 150 135 135 162 162 142 225 316 146 163 160 166 181 160 156 166 193 183 142 195 240 177 235 264 149 215 230 178 244 266 263 256 212 207 210 215 213 209 207
202 189 171 158 154 153 156 133 184 167 189 188 180 134 162 166 154 168 162 157 171 184 201 191 86 191 141 179 257 249 216 239 215 245 260 259 251 231 219 234 213 220 216 207 208
192 179 171 159 158 158 173 181 169 171 151 222 189 181 178 165 182 181 175 186 209 181 199 252 45 151 223 252 236 226 203 255 257 253 252 243 240 217 217 221 213 214 218 217 209
178 169 172 165 159 156 161 167 167 162 189 212 201 188 180 168 204 204 196 196 228 245 227 232 226 247 239 254 258 194 303 205 255 257 228 245 166 194 188 210 217 217 219 216 218
175 173 171 173 165 155 176 160 156 152 247 166 184 196 190 182 193 206 209 209 234 248 237 249 221 225 251 273 291 299 330 272 258 264 267 209 249 208 165 166 192 210 223 222 221
175 174 171 173 176 172 169 153 149 206 177 180 199 199 190 200 215 205 207 213 232 256 256 244 220 241 241 277 280 292 289 272 258 259 267 116 289 151 316 121 122 161 218 225 223
156 171 174 177 183 176 164 139 190 253 166 213 201 198 199 208 209 214 211 221 223 223 238 243 245 248 243 260 257 267 274 273 264 322 338 60 228 180 126 88 109 165 195 227 232
140 159 170 175 176 174 159 165 255 265 200 210 196 202 209 207 217 229 224 230 232 244 269 263 252 241 246 247 263 277 284 286 262 269 256 185 320 104 172 0 328 336 315 299 278
121 134 157 172 171 173 160 215 243 238 224 226 218 217 216 219 230 228 232 240 242 236 238 267 264 228 234 245 259 266 252 266 288 278 286 277 249 263 198 171 130 292 303 312 295
121 87 144 167 170 168 192 231 260 225 233 232 229 218 219 216 233 236 236 244 242 247 255 259 276 261 264 264 256 257 265 284 241 280 298 308 294 318 12 196 159 306 295 292 296
104 118 339 150 158 177 213 241 238 253 229 231 242 244 235 243 231 243 237 247 236 245 248 251 254 257 256 238 256 237 245 242 268 276 297 297 304 74 178 306 217 292 270 269 285
103 264 314 129 126 224 243 249 247 238 258 242 247 243 250 244 247 247 260 244 213 229 255 265 257 259 255 255 255 256 268 274 284 271 251 259 271 152 184 269 266 286 287 286 281
97 165 165 120 215 252 264 253 237 234 244 245 247 243 255 251 255 251 256 233 235 243 256 262 251 261 255 254 251 242 265 261 260 266 268 279 282 209 248 210 243 287 292 290 284
100 318 301 222 212 208 262 249 257 267 229 237 241 244 254 252 250 257 248 250 247 244 245 244 265 268 279 287 301 288 273 273 283 274 283 277 276 210 161 264 306 295 280 281 275
133 235 181 152 244 225 243 255 256 262 241 249 246 250 252 256 255 256 254 248 266 259 267 262 266 271 271 276 280 283 279 272 272 272 276 281 290 145 195 253 300 280 276 273 263
191 186 233 261 264 267 265 254 238 264 255 258 255 261 251 252 261 260 270 253 262 262 270 267 269 270 272 271 268 267 270 271 267 266 266 266 267 261 156 286 306 295 289 253 259
222 216 207 259 259 253 248 235 233 261 265 245 250 257 253 255 252 238 260 262 265 265 267 267 271 274 275 276 276 267 263 258 247 249 276 273 215 218 295 313 309 287 252 230 199